Time,TemperatureF,DewpointF,PressureIn,WindDirection,WindDirectionDegrees,WindSpeedMPH,WindSpeedGustMPH,Humidity,HourlyPrecipIn,Conditions,Clouds,dailyrainin,SoftwareType,DateUTC
2013-01-30 00:02:00,34.0,34.0,29.54,North,-999,-999.0,-999.0,98,-99.99,,,-99.99,,2013-01-30 06:02:00,
2013-01-30 00:11:00,34.0,34.0,29.54,North,-999,-999.0,-999.0,98,-99.99,,,-99.99,,2013-01-30 06:11:00,
2013-01-30 00:21:00,34.0,33.0,29.57,North,-999,-999.0,-999.0,96,-99.99,,,-99.99,,2013-01-30 06:21:00,
2013-01-30 00:32:00,34.0,33.0,29.54,North,-999,-999.0,-999.0,97,-99.99,,,-99.99,,2013-01-30 06:32:00,
2013-01-30 00:42:00,34.0,33.0,29.54,North,-999,-999.0,-999.0,97,-99.99,,,-99.99,,2013-01-30 06:42:00,
2013-01-30 00:52:00,34.0,33.0,29.54,North,-999,-999.0,-999.0,97,-99.99,,,-99.99,,2013-01-30 06:52:00,
2013-01-30 01:02:00,33.0,32.0,29.51,North,-999,-999.0,-999.0,96,-99.99,,,-99.99,,2013-01-30 07:02:00,
2013-01-30 01:11:00,33.0,32.0,29.51,North,-999,-999.0,-999.0,96,-99.99,,,-99.99,,2013-01-30 07:11:00,
2013-01-30 01:21:00,33.0,32.0,29.51,North,-999,-999.0,-999.0,96,-99.99,,,-99.99,,2013-01-30 07:21:00,
2013-01-30 01:32:00,32.0,30.0,29.48,North,-999,-999.0,-999.0,94,-99.99,,,-99.99,,2013-01-30 07:32:00,
2013-01-30 01:41:00,32.0,30.0,29.48,North,-999,-999.0,-999.0,94,-99.99,,,-99.99,,2013-01-30 07:41:00,
2013-01-30 01:52:00,32.0,31.0,29.48,North,-999,-999.0,-999.0,96,-99.99,,,-99.99,,2013-01-30 07:52:00,
2013-01-30 02:01:00,32.0,30.0,29.51,North,-999,-999.0,-999.0,94,-99.99,,,-99.99,,2013-01-30 08:01:00,
2013-01-30 02:11:00,32.0,30.0,29.51,North,-999,-999.0,-999.0,94,-99.99,,,-99.99,,2013-01-30 08:11:00,
2013-01-30 02:21:00,32.0,30.0,29.51,North,-999,-999.0,-999.0,94,-99.99,,,-99.99,,2013-01-30 08:21:00,
2013-01-30 02:32:00,32.0,30.0,29.48,North,-999,-999.0,-999.0,93,-99.99,,,-99.99,,2013-01-30 08:32:00,
2013-01-30 02:42:00,32.0,30.0,29.48,North,-999,-999.0,-999.0,93,-99.99,,,-99.99,,2013-01-30 08:42:00,
2013-01-30 02:52:00,32.0,30.0,29.48,North,-999,-999.0,-999.0,93,-99.99,,,-99.99,,2013-01-30 08:52:00,
2013-01-30 03:01:00,32.0,30.0,29.48,North,-999,-999.0,-999.0,93,-99.99,,,-99.99,,2013-01-30 09:01:00,
2013-01-30 03:11:00,32.0,30.0,29.48,North,-999,-999.0,-999.0,93,-99.99,,,-99.99,,2013-01-30 09:11:00,
2013-01-30 03:21:00,31.0,28.0,29.48,North,-999,-999.0,-999.0,89,-99.99,,,-99.99,,2013-01-30 09:21:00,
2013-01-30 03:32:00,31.0,28.0,29.48,North,-999,-999.0,-999.0,87,-99.99,,,-99.99,,2013-01-30 09:32:00,
2013-01-30 03:42:00,31.0,28.0,29.48,North,-999,-999.0,-999.0,87,-99.99,,,-99.99,,2013-01-30 09:42:00,
2013-01-30 03:52:00,31.0,28.0,29.48,North,-999,-999.0,-999.0,87,-99.99,,,-99.99,,2013-01-30 09:52:00,
2013-01-30 04:01:00,31.0,27.0,29.51,North,-999,-999.0,-999.0,84,-99.99,,,-99.99,,2013-01-30 10:01:00,
2013-01-30 04:11:00,31.0,27.0,29.51,North,-999,-999.0,-999.0,84,-99.99,,,-99.99,,2013-01-30 10:11:00,
2013-01-30 04:21:00,31.0,27.0,29.48,North,-999,-999.0,-999.0,84,-99.99,,,-99.99,,2013-01-30 10:21:00,
2013-01-30 04:31:00,31.0,26.0,29.48,North,-999,-999.0,-999.0,81,-99.99,,,-99.99,,2013-01-30 10:31:00,
2013-01-30 04:41:00,31.0,26.0,29.48,North,-999,-999.0,-999.0,81,-99.99,,,-99.99,,2013-01-30 10:41:00,
2013-01-30 04:52:00,31.0,26.0,29.48,North,-999,-999.0,-999.0,81,-99.99,,,-99.99,,2013-01-30 10:52:00,
2013-01-30 05:02:00,31.0,26.0,29.48,North,-999,-999.0,-999.0,83,-99.99,,,-99.99,,2013-01-30 11:02:00,
2013-01-30 05:11:00,31.0,26.0,29.48,North,-999,-999.0,-999.0,83,-99.99,,,-99.99,,2013-01-30 11:11:00,
2013-01-30 05:22:00,30.0,25.0,29.44,North,-999,-999.0,-999.0,83,-99.99,,,-99.99,,2013-01-30 11:22:00,
2013-01-30 05:32:00,29.0,26.0,29.44,North,-999,-999.0,-999.0,88,-99.99,,,-99.99,,2013-01-30 11:32:00,
2013-01-30 05:42:00,29.0,26.0,29.44,North,-999,-999.0,-999.0,88,-99.99,,,-99.99,,2013-01-30 11:42:00,
2013-01-30 05:52:00,29.0,26.0,29.44,North,-999,-999.0,-999.0,90,-99.99,,,-99.99,,2013-01-30 11:52:00,
2013-01-30 06:02:00,29.0,26.0,29.44,North,-999,-999.0,-999.0,89,-99.99,,,-99.99,,2013-01-30 12:02:00,
2013-01-30 06:12:00,29.0,26.0,29.44,North,-999,-999.0,-999.0,89,-99.99,,,-99.99,,2013-01-30 12:12:00,
2013-01-30 06:22:00,29.0,26.0,29.44,North,-999,-999.0,-999.0,89,-99.99,,,-99.99,,2013-01-30 12:22:00,
2013-01-30 06:32:00,29.0,25.0,29.41,North,-999,-999.0,-999.0,86,-99.99,,,-99.99,,2013-01-30 12:32:00,
2013-01-30 06:42:00,29.0,25.0,29.41,North,-999,-999.0,-999.0,86,-99.99,,,-99.99,,2013-01-30 12:42:00,
2013-01-30 07:03:00,28.0,26.0,29.41,North,-999,-999.0,-999.0,92,-99.99,,,-99.99,,2013-01-30 13:03:00,
2013-01-30 07:12:00,28.0,26.0,29.41,North,-999,-999.0,-999.0,92,-99.99,,,-99.99,,2013-01-30 13:12:00,
2013-01-30 07:23:00,27.0,26.0,29.41,North,-999,-999.0,-999.0,96,-99.99,,,-99.99,,2013-01-30 13:23:00,
2013-01-30 07:32:00,27.0,26.0,29.41,North,-999,-999.0,-999.0,97,-99.99,,,-99.99,,2013-01-30 13:32:00,
2013-01-30 07:42:00,27.0,26.0,29.41,North,-999,-999.0,-999.0,97,-99.99,,,-99.99,,2013-01-30 13:42:00,
2013-01-30 07:53:00,27.0,27.0,29.44,North,-999,-999.0,-999.0,99,-99.99,,,-99.99,,2013-01-30 13:53:00,
2013-01-30 08:02:00,26.0,26.0,29.41,North,-999,-999.0,-999.0,99,-99.99,,,-99.99,,2013-01-30 14:02:00,
2013-01-30 08:12:00,26.0,26.0,29.41,North,-999,-999.0,-999.0,99,-99.99,,,-99.99,,2013-01-30 14:12:00,
2013-01-30 08:22:00,26.0,26.0,29.44,North,-999,-999.0,-999.0,100,-99.99,,,-99.99,,2013-01-30 14:22:00,
2013-01-30 08:33:00,26.0,26.0,29.44,North,-999,-999.0,-999.0,100,-99.99,,,-99.99,,2013-01-30 14:33:00,
2013-01-30 08:42:00,26.0,26.0,29.44,North,-999,-999.0,-999.0,100,-99.99,,,-99.99,,2013-01-30 14:42:00,
2013-01-30 08:53:00,26.0,26.0,29.44,North,-999,-999.0,-999.0,100,-99.99,,,-99.99,,2013-01-30 14:53:00,
2013-01-30 09:03:00,26.0,26.0,29.48,North,-999,-999.0,-999.0,99,-99.99,,,-99.99,,2013-01-30 15:03:00,
2013-01-30 09:12:00,26.0,26.0,29.48,North,-999,-999.0,-999.0,99,-99.99,,,-99.99,,2013-01-30 15:12:00,
2013-01-30 09:23:00,26.0,26.0,29.48,North,-999,-999.0,-999.0,98,-99.99,,,-99.99,,2013-01-30 15:23:00,
2013-01-30 09:33:00,26.0,25.0,29.44,North,-999,-999.0,-999.0,97,-99.99,,,-99.99,,2013-01-30 15:33:00,
2013-01-30 09:43:00,26.0,25.0,29.44,North,-999,-999.0,-999.0,97,-99.99,,,-99.99,,2013-01-30 15:43:00,
2013-01-30 09:53:00,26.0,25.0,29.44,North,-999,-999.0,-999.0,97,-99.99,,,-99.99,,2013-01-30 15:53:00,
2013-01-30 10:03:00,26.0,25.0,29.48,North,-999,-999.0,-999.0,94,-99.99,,,-99.99,,2013-01-30 16:03:00,
2013-01-30 10:12:00,26.0,25.0,29.48,North,-999,-999.0,-999.0,94,-99.99,,,-99.99,,2013-01-30 16:12:00,
2013-01-30 10:23:00,27.0,25.0,29.48,North,-999,-999.0,-999.0,93,-99.99,,,-99.99,,2013-01-30 16:23:00,
2013-01-30 10:32:00,26.0,24.0,29.48,North,-999,-999.0,-999.0,91,-99.99,,,-99.99,,2013-01-30 16:32:00,
2013-01-30 10:42:00,26.0,24.0,29.48,North,-999,-999.0,-999.0,91,-99.99,,,-99.99,,2013-01-30 16:42:00,
2013-01-30 10:52:00,26.0,24.0,29.48,North,-999,-999.0,-999.0,91,-99.99,,,-99.99,,2013-01-30 16:52:00,
2013-01-30 11:02:00,26.0,24.0,29.48,North,-999,-999.0,-999.0,92,-99.99,,,-99.99,,2013-01-30 17:02:00,
2013-01-30 11:12:00,26.0,24.0,29.48,North,-999,-999.0,-999.0,92,-99.99,,,-99.99,,2013-01-30 17:12:00,
2013-01-30 11:23:00,27.0,24.0,29.44,North,-999,-999.0,-999.0,90,-99.99,,,-99.99,,2013-01-30 17:23:00,
2013-01-30 11:33:00,27.0,24.0,29.44,North,-999,-999.0,-999.0,90,-99.99,,,-99.99,,2013-01-30 17:33:00,
2013-01-30 11:42:00,27.0,24.0,29.44,North,-999,-999.0,-999.0,90,-99.99,,,-99.99,,2013-01-30 17:42:00,
2013-01-30 11:53:00,28.0,25.0,29.44,North,-999,-999.0,-999.0,88,-99.99,,,-99.99,,2013-01-30 17:53:00,
2013-01-30 12:02:00,30.0,25.0,29.44,North,-999,-999.0,-999.0,81,-99.99,,,-99.99,,2013-01-30 18:02:00,
2013-01-30 12:12:00,30.0,25.0,29.44,North,-999,-999.0,-999.0,81,-99.99,,,-99.99,,2013-01-30 18:12:00,
2013-01-30 12:22:00,30.0,24.0,29.44,North,-999,-999.0,-999.0,79,-99.99,,,-99.99,,2013-01-30 18:22:00,
2013-01-30 12:33:00,30.0,25.0,29.44,North,-999,-999.0,-999.0,80,-99.99,,,-99.99,,2013-01-30 18:33:00,
2013-01-30 12:42:00,30.0,25.0,29.44,North,-999,-999.0,-999.0,80,-99.99,,,-99.99,,2013-01-30 18:42:00,
2013-01-30 12:53:00,30.0,25.0,29.44,North,-999,-999.0,-999.0,80,-99.99,,,-99.99,,2013-01-30 18:53:00,
2013-01-30 13:02:00,30.0,25.0,29.44,North,-999,-999.0,-999.0,80,-99.99,,,-99.99,,2013-01-30 19:02:00,
2013-01-30 13:33:00,28.0,21.0,29.44,North,-999,-999.0,-999.0,76,-99.99,,,-99.99,,2013-01-30 19:33:00,
2013-01-30 13:43:00,28.0,21.0,29.44,North,-999,-999.0,-999.0,76,-99.99,,,-99.99,,2013-01-30 19:43:00,
2013-01-30 13:53:00,27.0,21.0,29.44,North,-999,-999.0,-999.0,79,-99.99,,,-99.99,,2013-01-30 19:53:00,
2013-01-30 14:03:00,27.0,21.0,29.44,North,-999,-999.0,-999.0,77,-99.99,,,-99.99,,2013-01-30 20:03:00,
2013-01-30 14:12:00,27.0,21.0,29.44,North,-999,-999.0,-999.0,77,-99.99,,,-99.99,,2013-01-30 20:12:00,
2013-01-30 14:22:00,26.0,19.0,29.44,North,-999,-999.0,-999.0,75,-99.99,,,-99.99,,2013-01-30 20:22:00,
2013-01-30 14:33:00,25.0,18.0,29.44,North,-999,-999.0,-999.0,73,-99.99,,,-99.99,,2013-01-30 20:33:00,
2013-01-30 14:42:00,25.0,18.0,29.44,North,-999,-999.0,-999.0,73,-99.99,,,-99.99,,2013-01-30 20:42:00,
2013-01-30 14:53:00,25.0,18.0,29.48,North,-999,-999.0,-999.0,73,-99.99,,,-99.99,,2013-01-30 20:53:00,
2013-01-30 15:03:00,26.0,19.0,29.48,North,-999,-999.0,-999.0,74,-99.99,,,-99.99,,2013-01-30 21:03:00,
2013-01-30 15:12:00,26.0,19.0,29.48,North,-999,-999.0,-999.0,74,-99.99,,,-99.99,,2013-01-30 21:12:00,
2013-01-30 15:23:00,24.0,17.0,29.48,North,-999,-999.0,-999.0,75,-99.99,,,-99.99,,2013-01-30 21:23:00,
2013-01-30 15:32:00,24.0,17.0,29.48,North,-999,-999.0,-999.0,74,-99.99,,,-99.99,,2013-01-30 21:32:00,
2013-01-30 15:42:00,24.0,17.0,29.48,North,-999,-999.0,-999.0,74,-99.99,,,-99.99,,2013-01-30 21:42:00,
2013-01-30 15:53:00,24.0,17.0,29.48,North,-999,-999.0,-999.0,73,-99.99,,,-99.99,,2013-01-30 21:53:00,
2013-01-30 16:02:00,24.0,17.0,29.48,North,-999,-999.0,-999.0,74,-99.99,,,-99.99,,2013-01-30 22:02:00,
2013-01-30 16:12:00,24.0,17.0,29.48,North,-999,-999.0,-999.0,74,-99.99,,,-99.99,,2013-01-30 22:12:00,
2013-01-30 16:22:00,24.0,17.0,29.51,North,-999,-999.0,-999.0,74,-99.99,,,-99.99,,2013-01-30 22:22:00,
2013-01-30 16:32:00,22.0,15.0,29.51,North,-999,-999.0,-999.0,74,-99.99,,,-99.99,,2013-01-30 22:32:00,
2013-01-30 16:42:00,22.0,15.0,29.51,North,-999,-999.0,-999.0,74,-99.99,,,-99.99,,2013-01-30 22:42:00,
2013-01-30 16:53:00,21.0,13.0,29.51,North,-999,-999.0,-999.0,71,-99.99,,,-99.99,,2013-01-30 22:53:00,
2013-01-30 17:02:00,20.0,12.0,29.51,North,-999,-999.0,-999.0,70,-99.99,,,-99.99,,2013-01-30 23:02:00,
2013-01-30 17:12:00,20.0,12.0,29.51,North,-999,-999.0,-999.0,70,-99.99,,,-99.99,,2013-01-30 23:12:00,
2013-01-30 17:22:00,19.0,11.0,29.51,North,-999,-999.0,-999.0,71,-99.99,,,-99.99,,2013-01-30 23:22:00,
2013-01-30 17:32:00,18.0,10.0,29.54,North,-999,-999.0,-999.0,70,-99.99,,,-99.99,,2013-01-30 23:32:00,
2013-01-30 17:42:00,18.0,10.0,29.54,North,-999,-999.0,-999.0,70,-99.99,,,-99.99,,2013-01-30 23:42:00,
2013-01-30 17:52:00,18.0,11.0,29.54,North,-999,-999.0,-999.0,72,-99.99,,,-99.99,,2013-01-30 23:52:00,
2013-01-30 18:02:00,17.0,9.0,29.54,North,-999,-999.0,-999.0,71,-99.99,,,-99.99,,2013-01-31 00:02:00,
2013-01-30 18:11:00,17.0,9.0,29.54,North,-999,-999.0,-999.0,71,-99.99,,,-99.99,,2013-01-31 00:11:00,
2013-01-30 18:22:00,17.0,9.0,29.54,North,-999,-999.0,-999.0,71,-99.99,,,-99.99,,2013-01-31 00:22:00,
2013-01-30 18:32:00,17.0,10.0,29.57,North,-999,-999.0,-999.0,72,-99.99,,,-99.99,,2013-01-31 00:32:00,
2013-01-30 18:42:00,17.0,10.0,29.57,North,-999,-999.0,-999.0,72,-99.99,,,-99.99,,2013-01-31 00:42:00,
2013-01-30 18:53:00,17.0,10.0,29.57,North,-999,-999.0,-999.0,72,-99.99,,,-99.99,,2013-01-31 00:53:00,
2013-01-30 19:02:00,17.0,9.0,29.57,North,-999,-999.0,-999.0,71,-99.99,,,-99.99,,2013-01-31 01:02:00,
2013-01-30 19:11:00,17.0,9.0,29.57,North,-999,-999.0,-999.0,71,-99.99,,,-99.99,,2013-01-31 01:11:00,
2013-01-30 19:21:00,16.0,8.0,29.57,North,-999,-999.0,-999.0,70,-99.99,,,-99.99,,2013-01-31 01:21:00,
2013-01-30 19:31:00,16.0,8.0,29.57,North,-999,-999.0,-999.0,69,-99.99,,,-99.99,,2013-01-31 01:31:00,
2013-01-30 19:42:00,16.0,8.0,29.57,North,-999,-999.0,-999.0,69,-99.99,,,-99.99,,2013-01-31 01:42:00,
2013-01-30 19:52:00,16.0,8.0,29.57,North,-999,-999.0,-999.0,70,-99.99,,,-99.99,,2013-01-31 01:52:00,
2013-01-30 20:01:00,16.0,8.0,29.57,North,-999,-999.0,-999.0,69,-99.99,,,-99.99,,2013-01-31 02:01:00,
2013-01-30 20:11:00,16.0,8.0,29.57,North,-999,-999.0,-999.0,69,-99.99,,,-99.99,,2013-01-31 02:11:00,
2013-01-30 20:21:00,15.0,7.0,29.57,North,-999,-999.0,-999.0,69,-99.99,,,-99.99,,2013-01-31 02:21:00,
2013-01-30 20:32:00,15.0,7.0,29.57,North,-999,-999.0,-999.0,70,-99.99,,,-99.99,,2013-01-31 02:32:00,
2013-01-30 20:42:00,15.0,7.0,29.57,North,-999,-999.0,-999.0,70,-99.99,,,-99.99,,2013-01-31 02:42:00,
2013-01-30 20:52:00,15.0,7.0,29.57,North,-999,-999.0,-999.0,70,-99.99,,,-99.99,,2013-01-31 02:52:00,
2013-01-30 21:03:00,15.0,6.0,29.59,North,-999,-999.0,-999.0,68,-99.99,,,-99.99,,2013-01-31 03:03:00,
2013-01-30 21:11:00,15.0,6.0,29.59,North,-999,-999.0,-999.0,68,-99.99,,,-99.99,,2013-01-31 03:11:00,
2013-01-30 21:21:00,15.0,6.0,29.59,North,-999,-999.0,-999.0,68,-99.99,,,-99.99,,2013-01-31 03:21:00,
2013-01-30 21:32:00,15.0,6.0,29.59,North,-999,-999.0,-999.0,68,-99.99,,,-99.99,,2013-01-31 03:32:00,
2013-01-30 21:41:00,15.0,6.0,29.59,North,-999,-999.0,-999.0,68,-99.99,,,-99.99,,2013-01-31 03:41:00,
2013-01-30 21:52:00,15.0,7.0,29.59,North,-999,-999.0,-999.0,69,-99.99,,,-99.99,,2013-01-31 03:52:00,
2013-01-30 22:02:00,15.0,6.0,29.59,North,-999,-999.0,-999.0,68,-99.99,,,-99.99,,2013-01-31 04:02:00,
2013-01-30 22:11:00,15.0,6.0,29.59,North,-999,-999.0,-999.0,68,-99.99,,,-99.99,,2013-01-31 04:11:00,
2013-01-30 22:22:00,15.0,6.0,29.59,North,-999,-999.0,-999.0,67,-99.99,,,-99.99,,2013-01-31 04:22:00,
2013-01-30 22:31:00,15.0,6.0,29.59,North,-999,-999.0,-999.0,67,-99.99,,,-99.99,,2013-01-31 04:31:00,
2013-01-30 22:41:00,15.0,6.0,29.59,North,-999,-999.0,-999.0,67,-99.99,,,-99.99,,2013-01-31 04:41:00,
2013-01-30 22:52:00,15.0,6.0,29.59,North,-999,-999.0,-999.0,67,-99.99,,,-99.99,,2013-01-31 04:52:00,
2013-01-30 23:03:00,15.0,6.0,29.59,North,-999,-999.0,-999.0,67,-99.99,,,-99.99,,2013-01-31 05:03:00,
2013-01-30 23:11:00,15.0,6.0,29.59,North,-999,-999.0,-999.0,67,-99.99,,,-99.99,,2013-01-31 05:11:00,
2013-01-30 23:22:00,15.0,6.0,29.59,North,-999,-999.0,-999.0,66,-99.99,,,-99.99,,2013-01-31 05:22:00,
2013-01-30 23:32:00,15.0,6.0,29.59,North,-999,-999.0,-999.0,66,-99.99,,,-99.99,,2013-01-31 05:32:00,
2013-01-30 23:41:00,15.0,6.0,29.63,North,-999,-999.0,-999.0,66,-99.99,,,-99.99,,2013-01-31 05:41:00,
2013-01-30 23:52:00,15.0,6.0,29.63,North,-999,-999.0,-999.0,66,-99.99,,,-99.99,,2013-01-31 05:52:00,